Location: Unspecified
(0.0000°N, 0.0000°E)
Time: 00:35:33
(UTC+00:00)

Tiangong - Pass Details

Date: 22 September 2023
Orbit: 370 x 384 km, 41.5° (Epoch: 04 October)

Event Time Altitude Azimuth Distance (km) Brightness Sun altitude
Rises 19:33:07 0° 254° (WSW) 2,247 3.0 -25.1°
Reaches altitude 10° 19:35:47 10° 278° (W) 1,387 1.7 -25.8°
Enters shadow 19:37:33 15° 313° (NW) 1,120 0.7 -26.2°
